Location: Lombard
(41.8800°N, 88.0080°W)
Time: 15:26:51
(UTC-05:00)

Vanguard 3 - Visible Passes

Search period start: 15 July 2024 00:00
Search period end: 25 July 2024 00:00
Orbit: 508 x 3231 km, 33.4° (Epoch: 15 July)

Date Brightness Start Highest point End Pass type
(mag) Time Alt. Az. Time Alt. Az. Time Alt. Az.
15 Jul 10.3 00:33:41 27° SE 00:34:44 28° SE 00:49:11 10° E visible
15 Jul 10.1 02:37:48 29° SW 02:48:08 53° SSE 03:06:35 10° E visible
15 Jul 10.2 04:44:51 10° WSW 05:03:48 66° S 05:20:59 10° ESE visible
15 Jul 10.8 23:18:59 14° ESE 23:18:59 14° ESE 23:23:53 10° E visible
16 Jul 10.0 01:23:06 36° S 01:27:44 41° SSE 01:45:09 10° E visible
16 Jul 10.1 03:27:13 17° WSW 03:42:25 63° SSE 04:01:00 10° E visible
17 Jul 10.2 00:08:21 28° SE 00:08:21 28° SE 00:22:29 10° E visible
17 Jul 10.0 02:12:27 32° SW 02:21:24 54° SSE 02:40:10 10° E visible
17 Jul 10.1 04:18:42 10° WSW 04:37:00 66° S 04:55:05 10° ESE visible
17 Jul 10.7 22:53:33 13° ESE 22:53:33 13° ESE 22:57:12 10° E visible
18 Jul 9.8 00:57:39 38° S 01:01:10 42° SSE 01:18:27 10° E visible
18 Jul 10.0 03:01:46 19° WSW 03:15:37 63° S 03:34:44 10° E visible
18 Jul 10.1 23:42:48 28° SE 23:42:48 28° SE 23:55:38 10° E visible
19 Jul 9.8 01:46:55 34° SW 01:54:44 55° SSE 02:13:33 10° E visible
19 Jul 10.1 03:52:41 10° WSW 04:10:10 66° S 04:28:57 10° ESE visible
19 Jul 10.7 22:27:54 12° ESE 22:27:54 12° ESE 22:30:24 10° E visible
20 Jul 9.7 00:32:00 40° SSE 00:34:42 42° SSE 00:51:34 10° E visible
20 Jul 9.9 02:36:06 19° WSW 02:48:52 63° S 03:08:14 10° E visible
20 Jul 10.2 04:46:38 10° W 05:04:42 62° SSW 05:22:42 10° ESE visible
20 Jul 10.0 23:17:00 27° SE 23:17:00 27° SE 23:28:39 10° E visible
21 Jul 9.7 01:21:06 35° SW 01:28:09 55° SSE 01:46:44 10° E visible
21 Jul 10.0 03:26:50 10° WSW 03:43:19 65° S 04:02:34 10° ESE visible
21 Jul 10.5 22:01:54 12° ESE 22:01:54 12° ESE 22:03:30 10° ESE visible
22 Jul 9.5 00:05:58 40° SSE 00:08:21 42° SSE 00:24:33 10° E visible
22 Jul 9.7 02:10:02 18° WSW 02:22:10 63° S 02:41:32 10° E visible
22 Jul 10.1 04:20:37 10° W 04:37:49 61° SSW 04:56:25 10° ESE visible
22 Jul 9.8 22:50:38 27° SE 22:50:38 27° SE 23:01:37 10° E visible
23 Jul 9.5 00:54:40 32° SW 01:01:40 55° SSE 01:19:46 10° E visible
23 Jul 9.9 03:01:08 10° W 03:16:31 64° S 03:35:58 10° ESE visible
23 Jul 10.0 21:34:45 12° ESE 21:34:45 12° ESE 21:36:34 10° ESE visible
23 Jul 9.4 23:38:41 36° S 23:42:07 42° SSE 23:57:27 10° E visible
24 Jul 9.6 01:42:38 11° WSW 01:55:34 63° S 02:14:39 10° E visible
24 Jul 10.0 03:54:46 10° W 04:10:56 59° SSW 04:29:53 10° ESE visible
24 Jul 9.5 22:16:07 10° S 22:23:33 26° SE 22:34:33 10° E visible
